Regional Weather Roundup
Issued by NWS

Home | Current Version | Previous Version | Text Only | Print | Product List | Glossary On
Versions: 1 2 3 4 5 6 7 8 9 10 11 12 13 14 15 16 17 18 19 20 21 22 23 24 25 26 27 28 29 30 31 32 33 34 35 36 37 38 39 40 41 42 43 44 45 46 47 48 49 50
000
ASUS45 KCYS 060010
RWRWY

WYOMING REGIONAL WEATHER ROUNDUP
NATIONAL WEATHER SERVICE CHEYENNE WY
600 PM MDT SUN JUL 05 2015

NOTE:  "FAIR" INDICATES FEW OR NO CLOUDS BELOW 12,000 FEET
WITH NO SIGNIFICANT WEATHER AND/OR OBSTRUCTIONS TO VISIBILITY.

WYZ001-060100-
YELLOWSTONE NATIONAL PARK

CITY           SKY/WX    TMP DP  RH WIND       PRES   REMARKS
LK YELLOWSTONE   N/A     63  46  54 W5        30.24S
6HR MIN TEMP:  59; 6HR MAX TEMP:  64;

W YELLOWSTONE  NOT AVBL

$$
WYZ002>013-054>058-071-098>099-060100-
NORTHERN WYOMING

CITY           SKY/WX    TMP DP  RH WIND       PRES   REMARKS
JACKSON        CLOUDY    68  55  64 SW6       30.14S
CODY           CLOUDY    55  52  88 N13       30.15R
GREYBULL       CLOUDY    62  56  80 NW5       30.08F
6HR MIN TEMP:  60; 6HR MAX TEMP:  69;

WORLAND        CLOUDY    60  58  92 NE7       30.08F FOG
6HR MIN TEMP:  60; 6HR MAX TEMP:  69;

SHERIDAN       LGT RAIN  58  55  90 N7        30.13S FOG
6HR MIN TEMP:  57; 6HR MAX TEMP:  63; 6HR PCP:  0.27;

BUFFALO        LGT RAIN  55  54  96 N13       30.15S FOG
6HR MIN TEMP:  55; 6HR MAX TEMP:  62; 6HR PCP:  0.38;

GILLETTE       LGT RAIN  58  56  93 N16       30.10S FOG
6HR MIN TEMP:  58; 6HR MAX TEMP:  66; 6HR PCP: TRACE;

HULETT         LGT RAIN  61  57  88 N10       30.10R
NEWCASTLE      LGT RAIN  63  57  82 N21G26    30.02R

$$
WYZ014>020-022>026-101>103-060100-
CENTRAL WYOMING

CITY           SKY/WX    TMP DP  RH WIND       PRES   REMARKS
BIG PINEY      PTSUNNY   67  48  50 CALM      30.20F
6HR MIN TEMP:  58; 6HR MAX TEMP:  68; 6HR PCP:  0.02;

PINEDALE       FAIR      66  46  48 W3        30.20F
DUBOIS         CLOUDY    61  46  59 CALM      30.20F
LANDER         CLOUDY    62  56  80 SW7       30.13S
6HR MIN TEMP:  61; 6HR MAX TEMP:  73; 6HR PCP:  0.09;

RIVERTON       CLOUDY    61  57  87 N10       30.12S
6HR MIN TEMP:  61; 6HR MAX TEMP:  71; 6HR PCP:  0.04;

CASPER         LGT RAIN  61  58  90 NE9       30.13R
6HR MIN TEMP:  61; 6HR MAX TEMP:  76; 6HR PCP:  0.02;

DOUGLAS        CLOUDY    67  57  70 NW14      30.08R
6HR MIN TEMP:  66; 6HR MAX TEMP:  78;


$$
WYZ021-027>030-104>119-060100-
SOUTHERN WYOMING

CITY           SKY/WX    TMP DP  RH WIND       PRES   REMARKS
EVANSTON       FAIR      70  57  63 N12       30.19S
6HR MIN TEMP:  57; 6HR MAX TEMP:  72; 6HR PCP:  0.06;

KEMMERER       MOCLDY    70  52  52 W12       30.21S
FORT BRIDGER   PTCLDY    68  63  83 N6        30.22S
ROCK SPRINGS   FAIR      63  56  78 VRB3      30.18F
6HR MIN TEMP:  57; 6HR MAX TEMP:  67; 6HR PCP:  0.17;

DIXON          FAIR      63  55  76 NW13G18   30.20S
RAWLINS        LGT RAIN  58  56  93 W6        30.20S FOG
6HR MIN TEMP:  58; 6HR MAX TEMP:  69; 6HR PCP:  0.26;

SARATOGA       LGT RAIN  59  55  88 NW9       30.21S
LARAMIE        CLOUDY    60  54  80 CALM      30.20F
6HR MIN TEMP:  55; 6HR MAX TEMP:  83; 6HR PCP:  0.54;

CHEYENNE       LGT RAIN  65  55  70 W16G25    30.09R
6HR MIN TEMP:  63; 6HR MAX TEMP:  89; 6HR PCP:  0.39;

TORRINGTON     HVY RAIN  64  63  96 SW16      30.01R VSB 1
6HR MIN TEMP:  63; 6HR MAX TEMP:  96;

PINE BLUFFS    FAIR      68  59  73 NW20G25   30.01R

$$


USA.gov is the U.S. government's official web portal to all federal, state and local government web resources and services.